User: anonymous   Login
Location: Hains Lake
(37.8540°N, 99.8578°W)
Time: 23:09:59
(UTC+00:00)
Language:

A-11 Canister half - Orbit

View from above orbital plane
View from above orbital plane
View from above satellite
View from above satellite

Ground track
Ground track

The orbit data is extracted from the following two-line orbital elements,

1 00053U 60009E   21108.49730785 -.00000112  00000-0 -28001-3 0  9998
2 00053  47.2791  38.2749 0098889 263.6224  95.3296 12.17254850705720
Epoch (UTC): 18 April 2021 11:56:07
Eccentricity: 0.0098889
inclination: 47.2791°
perigee height: 1525 km
apogee height: 1683 km
right ascension of ascending node: 38.2749°
argument of perigee: 263.6224°
revolutions per day: 12.17254850
mean anomaly at epoch: 95.3296°
orbit number at epoch: 70572

The dashed part of the orbit path shows where the satellite is in the earth's shadow,  

DLR